TimeHST,TemperatureF,Dew PointF,Humidity,Sea Level PressureIn,VisibilityMPH,Wind Direction,Wind SpeedMPH,Gust SpeedMPH,PrecipitationIn,Events,Conditions,WindDirDegrees,DateUTC
12:53 AM,73.9,66.0,76,29.96,10.0,NNW,9.2,-,N/A,,Clear,330,2013-07-02 10:53:00
1:53 AM,73.0,68.0,84,29.96,5.0,NNE,8.1,-,0.00,Rain,Light Rain,30,2013-07-02 11:53:00
2:25 AM,72.0,68.0,87,29.95,9.0,North,6.9,-,0.01,Rain,Light Rain,10,2013-07-02 12:25:00
2:53 AM,71.1,66.9,87,29.94,8.0,WNW,5.8,-,0.02,Rain,Light Rain,300,2013-07-02 12:53:00
3:21 AM,71.1,66.9,87,29.95,10.0,NW,4.6,-,0.00,,Overcast,310,2013-07-02 13:21:00
3:53 AM,70.0,66.9,90,29.95,4.0,NNW,8.1,-,0.01,Rain,Rain,330,2013-07-02 13:53:00
4:30 AM,70.0,68.0,93,29.96,3.0,NNW,4.6,-,0.05,Rain,Rain,340,2013-07-02 14:30:00
4:53 AM,70.0,68.0,93,29.96,5.0,West,8.1,-,0.11,Rain,Light Rain,280,2013-07-02 14:53:00
5:05 AM,70.0,66.9,90,29.95,7.0,West,10.4,-,0.01,Rain,Light Rain,260,2013-07-02 15:05:00
5:41 AM,69.1,66.0,90,29.96,10.0,West,4.6,-,0.01,,Overcast,260,2013-07-02 15:41:00
5:53 AM,69.1,66.0,90,29.96,10.0,WSW,4.6,-,0.01,,Overcast,240,2013-07-02 15:53:00
6:21 AM,70.0,68.0,93,29.98,6.0,West,9.2,-,0.03,Rain,Rain,270,2013-07-02 16:21:00
6:36 AM,70.0,66.9,90,29.98,10.0,West,10.4,-,0.05,Rain,Light Rain,260,2013-07-02 16:36:00
6:53 AM,70.0,66.9,90,29.98,10.0,West,8.1,-,0.05,,Overcast,260,2013-07-02 16:53:00
7:53 AM,73.0,66.9,81,29.99,10.0,WSW,8.1,-,N/A,,Mostly Cloudy,250,2013-07-02 17:53:00
8:53 AM,80.1,68.0,67,30.00,10.0,NW,5.8,-,N/A,,Mostly Cloudy,320,2013-07-02 18:53:00
9:53 AM,80.1,66.9,64,30.00,10.0,NNE,8.1,-,N/A,,Mostly Cloudy,20,2013-07-02 19:53:00
10:53 AM,79.0,69.1,72,29.99,10.0,East,8.1,-,N/A,,Mostly Cloudy,100,2013-07-02 20:53:00
11:53 AM,82.0,66.9,60,29.97,10.0,NNE,9.2,-,N/A,,Mostly Cloudy,30,2013-07-02 21:53:00
12:53 PM,82.0,68.0,62,29.96,10.0,ENE,9.2,-,N/A,,Mostly Cloudy,70,2013-07-02 22:53:00
1:53 PM,75.0,70.0,84,29.95,2.5,NNE,10.4,-,0.05,Rain,Heavy Rain,20,2013-07-02 23:53:00
1:59 PM,75.0,71.1,87,29.95,3.0,North,8.1,-,0.03,Rain,Light Rain,10,2013-07-02 23:59:00
2:53 PM,79.0,70.0,74,29.94,10.0,North,9.2,-,0.04,,Overcast,10,2013-07-03 00:53:00
3:53 PM,77.0,68.0,74,29.92,10.0,NE,10.4,-,0.00,,Mostly Cloudy,50,2013-07-03 01:53:00
4:16 PM,77.0,68.0,74,29.92,10.0,NNE,11.5,-,0.00,Rain,Light Rain,20,2013-07-03 02:16:00
4:23 PM,78.1,68.0,71,29.92,10.0,NNE,8.1,-,0.00,,Overcast,30,2013-07-03 02:23:00
4:44 PM,75.9,70.0,82,29.93,4.0,North,10.4,-,0.00,Rain,Rain,360,2013-07-03 02:44:00
4:53 PM,75.9,69.1,79,29.92,7.0,North,16.1,-,0.01,Rain,Light Rain,350,2013-07-03 02:53:00
5:25 PM,73.9,69.1,85,29.93,1.8,North,6.9,-,0.00,Rain,Rain,360,2013-07-03 03:25:00
5:38 PM,73.0,69.1,87,29.93,3.0,NW,9.2,-,0.13,Rain,Light Rain,320,2013-07-03 03:38:00
5:53 PM,73.0,68.0,84,29.93,3.0,NNW,9.2,-,0.15,Rain,Light Rain,330,2013-07-03 03:53:00
6:06 PM,73.9,68.0,82,29.94,10.0,NW,9.2,-,0.00,Rain,Light Rain,320,2013-07-03 04:06:00
6:53 PM,73.9,69.1,85,29.95,10.0,NNW,9.2,-,0.00,Rain,Light Rain,330,2013-07-03 04:53:00
7:26 PM,73.9,68.0,82,29.96,10.0,NE,8.1,-,0.00,,Mostly Cloudy,40,2013-07-03 05:26:00
7:45 PM,73.0,68.0,84,29.96,10.0,Calm,Calm,-,0.00,Rain,Light Rain,0,2013-07-03 05:45:00
7:53 PM,73.0,68.0,84,29.96,10.0,NW,5.8,-,0.00,Rain,Light Rain,310,2013-07-03 05:53:00
8:16 PM,73.0,69.1,87,29.97,10.0,WNW,6.9,-,0.01,,Overcast,300,2013-07-03 06:16:00
8:43 PM,72.0,68.0,87,29.98,10.0,West,8.1,-,0.01,,Overcast,270,2013-07-03 06:43:00
8:53 PM,73.0,68.0,84,29.98,10.0,West,5.8,-,0.01,,Overcast,270,2013-07-03 06:53:00
9:44 PM,73.0,68.0,84,29.99,10.0,West,5.8,-,N/A,,Overcast,270,2013-07-03 07:44:00
9:53 PM,73.0,68.0,84,29.99,10.0,SSW,3.5,-,N/A,,Overcast,210,2013-07-03 07:53:00
10:23 PM,72.0,68.0,87,30.00,2.5,Calm,Calm,-,0.06,Rain,Light Rain,0,2013-07-03 08:23:00
10:30 PM,72.0,66.9,84,29.99,10.0,NW,3.5,-,0.06,Rain,Light Rain,310,2013-07-03 08:30:00
10:43 PM,73.0,66.9,81,29.99,7.0,Calm,Calm,-,0.07,Rain,Rain,0,2013-07-03 08:43:00
10:50 PM,73.4,68.0,83,29.99,7.0,NNW,5.8,-,0.07,Rain,Light Rain,340,2013-07-03 08:50:00
10:53 PM,73.0,68.0,84,29.99,6.0,NNW,5.8,-,0.08,Rain,Light Rain,330,2013-07-03 08:53:00
11:53 PM,71.1,66.9,87,29.99,10.0,WSW,4.6,-,0.00,,Overcast,240,2013-07-03 09:53:00